This is the latest recevied weather packets stored in our database for station/object SQ7FJB-2. If no packets are shown the sender has not sent any weather packets the latest 10 day(s).
| Time | Temp. | Humidity | Pressure | Rain* | Wind** | Luminosity | Snow |
|---|---|---|---|---|---|---|---|
| 1777585659 | 8.33° C | 59% | 1026 hPa | 0 mm | - | - | - |
| 1777585059 | 7.78° C | 63% | 1026.1 hPa | 0 mm | - | - | - |
| 1777584448 | 7.78° C | 65% | 1026.3 hPa | 0 mm | - | - | - |
| 1777583847 | 7.78° C | 67% | 1026.4 hPa | 0 mm | - | - | - |
| 1777583235 | 7.78° C | 65% | 1026.4 hPa | 0 mm | - | - | - |
| 1777582623 | 7.78° C | 64% | 1026.4 hPa | 0 mm | - | - | - |
| 1777582022 | 7.78° C | 64% | 1026.3 hPa | 0 mm | - | - | - |
| 1777581409 | 7.78° C | 67% | 1026.5 hPa | 0 mm | - | - | - |
| 1777580809 | 7.78° C | 67% | 1026.5 hPa | 0 mm | - | - | - |
| 1777580197 | 7.78° C | 68% | 1026.6 hPa | 0 mm | - | - | - |
| 1777579584 | 7.78° C | 63% | 1026.6 hPa | 0 mm | - | - | - |
| 1777578972 | 7.78° C | 64% | 1026.5 hPa | 0 mm | - | - | - |
| 1777578360 | 7.78° C | 64% | 1026.5 hPa | 0 mm | - | - | - |
| 1777577747 | 8.33° C | 63% | 1026.4 hPa | 0 mm | - | - | - |
| 1777577147 | 8.33° C | 62% | 1026.5 hPa | 0 mm | - | - | - |
| 1777576535 | 8.33° C | 59% | 1026.6 hPa | 0 mm | - | - | - |
| 1777575922 | 8.89° C | 60% | 1026.7 hPa | 0 mm | - | - | - |
| 1777575310 | 8.89° C | 57% | 1026.7 hPa | 0 mm | - | - | - |
| 1777574697 | 8.89° C | 54% | 1026.6 hPa | 0 mm | - | - | - |
| 1777574096 | 8.89° C | 56% | 1026.6 hPa | 0 mm | - | - | - |
| 1777573484 | 9.44° C | 57% | 1026.6 hPa | 0 mm | - | - | - |
| 1777572872 | 9.44° C | 50% | 1026.6 hPa | 0 mm | - | - | - |
| 1777572260 | 10° C | 49% | 1026.4 hPa | 0 mm | - | - | - |
| 1777571659 | 10° C | 47% | 1026.3 hPa | 0 mm | - | - | - |
| 1777571059 | 10° C | 47% | 1026.3 hPa | 0 mm | - | - | - |
* Rain latest hour (hover to see other rain measurements)
** Current wind speed in m/s (hover to see current wind gust speed)